Location: Red Bud (historical)
(37.7759°N, 88.4053°W)
Time: 10:16:15
(UTC+00:00)

Nauka - Visible Passes

Search period start: 17 September 2021 00:00
Search period end: 27 September 2021 00:00
Orbit: 419 x 423 km, 51.6° (Epoch: 16 September)

Date Brightness Start Highest point End Pass type
(mag) Time Alt. Az. Time Alt. Az. Time Alt. Az.
17 Sep ? 00:58:40 10° SW 01:02:00 68° SE 01:04:35 16° ENE visible
17 Sep ? 02:36:45 10° WNW 02:37:38 14° WNW 02:37:38 14° WNW visible
18 Sep ? 01:49:16 10° W 01:52:06 25° NNW 01:53:12 21° N visible
19 Sep ? 01:01:57 10° WSW 01:05:06 37° NNW 01:08:17 10° NE visible
20 Sep ? 01:53:51 10° NW 01:55:33 13° NNW 01:56:46 11° N visible
21 Sep ? 01:06:06 10° WNW 01:08:26 17° NNW 01:10:47 10° NNE visible
22 Sep ? 00:18:34 10° W 00:21:21 24° NNW 00:24:11 10° NNE visible
23 Sep ? 01:11:22 10° NNW 01:11:58 10° NNW 01:12:36 10° N visible
24 Sep ? 00:23:10 10° NW 00:24:47 13° NNW 00:26:26 10° N visible
